This is the latest recevied weather packets stored in our database for station/object KB3FKJ. If no packets are shown the sender has not sent any weather packets the latest 10 day(s).
| Time | Temp. | Humidity | Pressure | Rain* | Wind** | Luminosity | Snow |
|---|---|---|---|---|---|---|---|
| 1777786466 | 3.33° C | 69% | 1013.4 hPa | 0 mm | - | 0 W/m² | - |
| 1777786162 | 3.33° C | 67% | 1013.7 hPa | 0 mm | - | 0 W/m² | - |
| 1777785860 | 3.33° C | 68% | 1013.8 hPa | 0 mm | - | 0 W/m² | - |
| 1777785556 | 3.89° C | 68% | 1013.7 hPa | 0 mm | - | 0 W/m² | - |
| 1777785252 | 3.89° C | 66% | 1013.7 hPa | 0 mm | - | 0 W/m² | - |
| 1777784949 | 3.89° C | 66% | 1013.7 hPa | 0 mm | - | 0 W/m² | - |
| 1777784645 | 3.89° C | 68% | 1013.5 hPa | 0 mm | - | 0 W/m² | - |
| 1777784343 | 3.89° C | 66% | 1013.6 hPa | 0 mm | - | 0 W/m² | - |
| 1777784040 | 3.89° C | 67% | 1013.6 hPa | 0 mm | - | 0 W/m² | - |
| 1777783736 | 3.89° C | 68% | 1013.7 hPa | 0 mm | - | 0 W/m² | - |
| 1777783434 | 3.89° C | 67% | 1013.8 hPa | 0 mm | - | 0 W/m² | - |
| 1777783131 | 3.89° C | 68% | 1013.7 hPa | 0 mm | - | 0 W/m² | - |
| 1777782828 | 3.89° C | 67% | 1013.8 hPa | 0 mm | - | 0 W/m² | - |
| 1777782524 | 3.89° C | 66% | 1013.7 hPa | 0 mm | - | 0 W/m² | - |
| 1777782221 | 3.89° C | 64% | 1013.8 hPa | 0 mm | - | 0 W/m² | - |
| 1777781916 | 3.89° C | 66% | 1013.7 hPa | 0 mm | - | 0 W/m² | - |
| 1777781614 | 3.89° C | 67% | 1013.8 hPa | 0 mm | - | 0 W/m² | - |
| 1777781312 | 4.44° C | 64% | 1013.8 hPa | 0 mm | - | 0 W/m² | - |
| 1777781009 | 4.44° C | 63% | 1013.7 hPa | 0 mm | - | 0 W/m² | - |
| 1777780706 | 4.44° C | 64% | 1013.7 hPa | 0 mm | - | 0 W/m² | - |
| 1777780403 | 4.44° C | 65% | 1013.8 hPa | 0 mm | - | 0 W/m² | - |
| 1777780100 | 4.44° C | 66% | 1014.1 hPa | 0 mm | - | 0 W/m² | - |
| 1777779797 | 4.44° C | 65% | 1014 hPa | 0 mm | - | 0 W/m² | - |
| 1777779494 | 4.44° C | 66% | 1013.9 hPa | 0 mm | - | 0 W/m² | - |
| 1777779192 | 4.44° C | 66% | 1013.9 hPa | 0 mm | - | 0 W/m² | - |
* Rain latest hour (hover to see other rain measurements)
** Current wind speed in m/s (hover to see current wind gust speed)